Date String (YYYY-MM-DD hh:mm:ss) UTC,Instrument flags,absolute air pressure of the measurement (hPa),sample flow rate (lpm),inlet stack bypass flow (lpm),air temperature of the measurement (°C),ambient temperature measured by the external sensor (°C),aerosol sample conditioner tube jacket temperature (°C),OPC LED temperature (°C),internal box temperature (°C),relative humidity of the measurement (%),span deviation,mass concentration of particles derived from Lorenz-Mie calculation of OPC scattering (μg/m³),mass concentration of particles derived from Lorenz-Mie calculation of OPC scattering (μg/m³),mass concentration of particles derived from Lorenz-Mie calculation of OPC scattering (μg/m³)
DateTimeUTC,F1_M11,P_M11,Q1_M11,Q2_M11,T1_M11,T2_M11,T3_M11,T4_M11,T5_M11,U1_M11,ZSPAN_M11,X0_M11,X2_M11,X1_M11
2024-05-28 04:00:00,SystemResetWarning,0834.2,5.00,000.00,030.1,029.4,000.0,038.3,031.9,014.6,0000.0,0014.26,0004.26,0003.26
2024-05-28 04:01:00,SystemResetWarning,0834.2,5.00,000.00,030.1,029.5,000.0,038.3,031.9,014.4,0000.0,0013.72,0004.22,0003.27
2024-05-28 04:02:00,SystemResetWarning,0834.2,5.00,000.00,030.2,029.5,000.0,038.4,031.9,014.2,0000.0,0012.71,0004.16,0003.27
2024-05-28 04:03:00,SystemResetWarning,0834.2,5.01,000.00,030.2,029.6,000.0,038.4,032.0,014.2,0000.0,0012.56,0004.11,0003.28
2024-05-28 04:04:00,SystemResetWarning,0834.2,4.99,000.00,030.3,029.6,000.0,038.4,032.0,014.0,0000.0,0011.78,0004.08,0003.29
2024-05-28 04:05:00,SystemResetWarning,0834.2,5.00,000.00,030.3,029.7,000.0,038.4,032.0,014.1,0000.0,0011.45,0004.11,0003.31
2024-05-28 04:06:00,SystemResetWarning,0834.2,5.00,000.00,030.3,029.7,000.0,038.4,032.0,014.2,0000.0,0011.40,0004.12,0003.32
2024-05-28 04:07:00,SystemResetWarning,0834.3,5.00,000.00,030.3,029.7,000.0,038.5,032.1,014.2,0000.0,0010.83,0004.08,0003.32
2024-05-28 04:08:00,SystemResetWarning,0834.2,5.00,000.00,030.4,029.8,000.0,038.5,032.1,014.2,0000.0,0010.41,0004.08,0003.33
2024-05-28 04:09:00,SystemResetWarning,0834.2,5.00,000.00,030.4,029.8,000.0,038.5,032.1,014.1,0000.0,0010.24,0004.07,0003.33
2024-05-28 04:10:00,SystemResetWarning,0834.3,5.00,000.00,030.4,029.8,000.0,038.5,032.1,014.1,0000.0,0009.63,0004.09,0003.35
2024-05-28 04:11:00,SystemResetWarning,0834.4,5.00,000.00,030.5,029.8,000.0,038.6,032.2,014.1,0000.0,0009.61,0004.10,0003.36
2024-05-28 04:12:00,SystemResetWarning,0834.3,5.00,000.00,030.5,029.9,000.0,038.6,032.2,014.1,0000.0,0008.85,0004.10,0003.36
2024-05-28 04:13:00,SystemResetWarning,0834.5,5.00,000.00,030.5,029.9,000.0,038.6,032.2,014.0,0000.0,0009.06,0004.13,0003.35
2024-05-28 04:14:00,SystemResetWarning,0834.6,5.00,000.00,030.5,029.9,000.0,038.6,032.2,014.0,0000.0,0010.83,0004.14,0003.37
2024-05-28 04:15:00,SystemResetWarning,0834.4,5.00,000.00,030.6,029.9,000.0,038.7,032.3,014.0,0000.0,0011.49,0004.15,0003.36
2024-05-28 04:16:00,SystemResetWarning,0834.4,5.00,000.00,030.6,029.9,000.0,038.7,032.3,014.0,0000.0,0011.44,0004.15,0003.35
2024-05-28 04:17:00,SystemResetWarning,0834.4,5.00,000.00,030.6,030.0,000.0,038.7,032.3,013.9,0000.0,0011.51,0004.10,0003.34
2024-05-28 04:18:00,SystemResetWarning,0834.7,4.99,000.00,030.6,030.0,000.0,038.7,032.3,013.9,0000.0,0012.16,0004.13,0003.35
2024-05-28 04:19:00,SystemResetWarning,0834.4,5.00,000.00,030.6,030.0,000.0,038.7,032.3,013.9,0000.0,0012.28,0004.15,0003.35
2024-05-28 04:20:00,SystemResetWarning,0834.3,5.00,000.00,030.6,030.0,000.0,038.8,032.3,013.9,0000.0,0012.32,0004.16,0003.35
2024-05-28 04:21:00,SystemResetWarning,0834.5,5.00,000.00,030.7,030.0,000.0,038.8,032.4,013.9,0000.0,0012.19,0004.17,0003.34
2024-05-28 04:22:00,SystemResetWarning,0834.5,4.99,000.00,030.7,030.0,000.0,038.8,032.4,013.9,0000.0,0011.75,0004.15,0003.35
2024-05-28 04:23:00,SystemResetWarning,0834.4,5.00,000.00,030.7,030.0,000.0,038.8,032.4,013.9,0000.0,0011.84,0004.20,0003.35
2024-05-28 04:24:00,SystemResetWarning,0834.4,4.99,000.00,030.7,030.1,000.0,038.8,032.4,013.8,0000.0,0011.62,0004.17,0003.37
2024-05-28 04:25:00,SystemResetWarning,0834.4,5.01,000.00,030.7,030.1,000.0,038.9,032.4,013.8,0000.0,0010.23,0004.20,0003.37
2024-05-28 04:26:00,SystemResetWarning,0834.4,5.02,000.00,030.7,030.1,000.0,038.9,032.4,013.8,0000.0,0009.78,0004.20,0003.37
2024-05-28 04:27:00,SystemResetWarning,0834.3,5.00,000.00,030.7,030.1,000.0,038.9,032.4,013.8,0000.0,0009.66,0004.20,0003.37
2024-05-28 04:28:00,SystemResetWarning,0834.6,4.99,000.00,030.8,030.1,000.0,038.9,032.4,013.7,0000.0,0009.32,0004.18,0003.37
2024-05-28 04:29:00,SystemResetWarning,0834.4,5.00,000.00,030.8,030.1,000.0,038.9,032.4,013.8,0000.0,0008.93,0004.16,0003.37
2024-05-28 04:30:00,SystemResetWarning,0834.5,4.99,000.00,030.8,030.1,000.0,038.9,032.4,013.9,0000.0,0008.90,0004.13,0003.38
2024-05-28 04:31:00,SystemResetWarning,0834.5,5.00,000.00,030.8,030.1,000.0,038.9,032.4,013.8,0000.0,0009.13,0004.12,0003.39
2024-05-28 04:32:00,SystemResetWarning,0834.4,5.01,000.00,030.8,030.1,000.0,039.0,032.4,013.8,0000.0,0009.50,0004.14,0003.39
2024-05-28 04:33:00,SystemResetWarning,0834.6,5.00,000.00,030.8,030.1,000.0,039.0,032.5,013.7,0000.0,0009.64,0004.15,0003.40
2024-05-28 04:34:00,SystemResetWarning,0834.6,5.00,000.00,030.8,030.1,000.0,039.0,032.5,013.9,0000.0,0010.19,0004.12,0003.40
2024-05-28 04:35:00,SystemResetWarning,0834.5,4.99,000.00,030.8,030.1,000.0,039.0,032.5,014.1,0000.0,0011.45,0004.16,0003.40
2024-05-28 04:36:00,SystemResetWarning,0834.3,4.99,000.00,030.8,030.2,000.0,039.0,032.5,013.8,0000.0,0012.41,0004.16,0003.40
2024-05-28 04:37:00,SystemResetWarning,0834.5,5.00,000.00,030.9,030.2,000.0,039.0,032.5,013.9,0000.0,0012.14,0004.14,0003.41
2024-05-28 04:38:00,SystemResetWarning,0834.4,5.01,000.00,030.9,030.2,000.0,039.0,032.5,013.9,0000.0,0012.28,0004.10,0003.41
2024-05-28 04:39:00,SystemResetWarning,0834.4,5.01,000.00,030.9,030.2,000.0,039.1,032.5,013.7,0000.0,0012.94,0004.12,0003.41
2024-05-28 04:40:00,SystemResetWarning,0834.6,5.00,000.00,030.9,030.2,000.0,039.1,032.5,013.7,0000.0,0012.72,0004.11,0003.40
2024-05-28 04:41:00,SystemResetWarning,0834.4,5.01,000.00,030.9,030.2,000.0,039.1,032.5,013.6,0000.0,0012.87,0004.11,0003.40
2024-05-28 04:42:00,SystemResetWarning,0834.5,4.99,000.00,030.9,030.2,000.0,039.1,032.5,013.6,0000.0,0012.92,0004.10,0003.39
2024-05-28 04:43:00,SystemResetWarning,0834.3,4.99,000.00,030.9,030.2,000.0,039.1,032.5,013.6,0000.0,0012.90,0004.07,0003.39
2024-05-28 04:44:00,SystemResetWarning,0834.4,5.01,000.00,030.9,030.2,000.0,039.1,032.5,013.6,0000.0,0012.75,0004.06,0003.38
2024-05-28 04:45:00,SystemResetWarning,0834.4,5.01,000.00,030.9,030.2,000.0,039.1,032.5,013.5,0000.0,0012.05,0004.05,0003.37
2024-05-28 04:46:00,SystemResetWarning,0834.4,5.00,000.00,030.9,030.2,000.0,039.1,032.6,013.5,0000.0,0011.38,0004.06,0003.37
2024-05-28 04:47:00,SystemResetWarning,0834.5,4.99,000.00,030.9,030.2,000.0,039.1,032.5,013.6,0000.0,0009.84,0004.06,0003.37
2024-05-28 04:48:00,SystemResetWarning,0835.0,4.99,000.00,030.9,030.2,000.0,039.2,032.5,013.6,0000.0,0010.54,0004.08,0003.38
2024-05-28 04:49:00,SystemResetWarning,0834.7,5.00,000.00,030.9,030.2,000.0,039.2,032.6,014.5,0000.0,0010.77,0004.13,0003.38
2024-05-28 04:50:00,SystemResetWarning,0834.7,5.00,000.00,030.9,030.2,000.0,039.2,032.6,014.8,0000.0,0010.73,0004.16,0003.38
2024-05-28 04:51:00,SystemResetWarning,0834.7,5.00,000.00,031.0,030.2,000.0,039.2,032.6,014.7,0000.0,0011.69,0004.19,0003.36
2024-05-28 04:52:00,SystemResetWarning,0834.7,5.00,000.00,031.0,030.2,000.0,039.2,032.6,013.8,0000.0,0012.35,0004.26,0003.36
2024-05-28 04:53:00,SystemResetWarning,0834.8,5.00,000.00,031.0,030.3,000.0,039.2,032.6,014.1,0000.0,0012.36,0004.26,0003.34
2024-05-28 04:54:00,SystemResetWarning,0834.8,5.00,000.00,031.0,030.3,000.0,039.2,032.6,014.5,0000.0,0012.09,0004.28,0003.34
2024-05-28 04:55:00,SystemResetWarning,0834.7,4.99,000.00,031.0,030.3,000.0,039.2,032.6,014.2,0000.0,0013.06,0004.32,0003.34
2024-05-28 04:56:00,SystemResetWarning,0834.8,5.00,000.00,031.0,030.3,000.0,039.3,032.7,014.1,0000.0,0013.70,0004.35,0003.34
2024-05-28 04:57:00,SystemResetWarning,0834.8,5.00,000.00,031.0,030.3,000.0,039.3,032.7,014.1,0000.0,0013.69,0004.37,0003.34
2024-05-28 04:58:00,SystemResetWarning,0834.7,5.00,000.00,031.0,030.3,000.0,039.3,032.7,014.1,0000.0,0013.80,0004.34,0003.33
2024-05-28 04:59:00,SystemResetWarning,0834.7,4.99,000.00,031.0,030.3,000.0,039.3,032.7,013.9,0000.0,0013.23,0004.33,0003.32
